Terug naar catalogus

CZ-6A DEB

ActiefSSO
NORAD 54350·DEBRIS·🇨🇳 China

Gelanceerd Nov 11, 2022 vanaf Taiyuan Satellite Launch Center

Loading…

Volgende Passages (komende 24 uur)

TLE

VersSource: Space-Track

Epoch: Sep 14, 2026, 09:53 UTC

1 54350U 22151CV  26257.41227733  .00000103  00000-0  50684-4 0  9990
2 54350  98.6943 303.1863 0068557  75.1492 285.7273 14.34895584200435

Volg CZ-6A DEB in realtime met AllMySat

Download on the App Store